CARTOSAT-3 (44804 NORAD) Tracking and Keplerian Element Data

This shows tracking and keplerian element data for the satellite.

Feedback or suggestion? Click here.




ElementValue
Catalog44804
NameCARTOSAT-3
Epoch Orbit864
Epoch Day23.14629457
Epoch Year2020
RAAN84.9046
Inclination97.5177
Eccentricity0.0016463
Argument of Perigee43.4148
Mean Anonmoly40.5665
Mean Motion15.18739242
Decay Rate2.6E-06
L11 44804U 19081A 20023.14629457 .00000260 00000-0 15805-4 0 9995
L22 44804 97.5177 84.9046 0016463 43.4148 40.5665 15.18739242 8649

Live tracking and technical data element details for CARTOSAT-3 (NORAD 44804). CARTOSAT-3 can be tracked NOW for your location showing map with azimuth and elevation plus other details from your city location.

Track the satellite on the map from your city or location and see movement details for azimuth, elevation, latitude, longitude, range, height, and movement on the map or in text.







IsCatalogInMostPopularTable: catalog: 44804, numindb: 9
Update: records affected: 1



GetName: 44804 CARTOSAT-3

Hit Count: updated at: Fri, 24 Jan 2020 14:33:35 GMT